CZ-3B DEB, 39334

Orbit data source: Space-Track

CZ-3B DEB, 39334 is space debris in HEO originally from a launch on Sat, 04 Sep 2010 UTC launched from the Xichang Space Center, China (XSC). Debris objects in space refer to the collection of defunct objects orbiting the Earth. Examples of debris include non-operational satellites, rocket bodies, and fragments generated from explosions, collisions, or faulty payload assembly.

Loading next visibility...
Identifier
39334, 2010-042F
Orbit
HEO
Last TLE update
2 weeks ago
Origin
Manufacturer
CALT
Mission
Spacecraft
Bus & Motor
Unknown
Mass
Unknown
Launch date (UTC)
2010-09-04 (15 years ago)
Launch vehicle
Unknown
Launch site
Xichang Space Center, China (XSC)
Object type
Payload
Rocket body
Debris
Shape & HBR
Unknown
Radar Cross Section
Medium (>0.1 m² and <1 m²)

Expand to show TLE details & history

TLE from 2 weeks ago
0 CZ-3B DEB
1 39334U 10042F   25170.50439972 -.00000210  00000-0  00000-0 0  9997
2 39334  26.7764 327.2459 7334115 258.5960  17.3616  1.86366820 91056
Epoch: 2025-06-19T12:06Z
TLE epoch observation values (Epoch: 2025-06-19T12:06:20.135Z)
Latitude
-1.33425°
Longitude
-125.00949°
Altitude
8,034.472 km
Speed
6.405 km/s
True Right ascension
21h 38m 10s
True Declination
-1° 19' 49"
Sunlit
Object was in daylight at epoch
Visualization orbit readout
Latitude
25.8818°
Longitude
-20.32127°
Altitude
35,676.6 km
Speed
2.16 km/s
Apparent Right ascension
04h 07m 51s
Apparent Declination
20° 18' 09"
Sunlit
Object is in daylight
Visualization observer readout
Local Sidereal Time
10:56:40
Azimuth
293.223° NW
Elevation
4.048°
Doppler factor
1
Orbital elements
Apogee altitude
41,977.357 km
Perigee altitude
1,058.654 km
Semi-major axis
27,896.142 km
Eccentricity
0.73341
Inclination
26.7764°
RAAN
327.2459°
Arg. of periapsis
258.596°
True anomaly
Unknown
Mean anomaly
17.3616°
Eccentric anomaly
Unknown
Mean motion
0.46583 °/min
Orbital period
772.82 mins
BSTAR
0
Loading maneuver chart data...
Loading SW <> Apogee altitude chart data...
Loading historical data...
Loading historical data...
Loading historical data...
Loading historical data...
Loading historical data...
Loading historical data...
Loading historical data...

CZ-3B DEB Visibility forecast

Observer location: undefined°, undefined°

Span
Click to sort rows by Start time (UTC) header in descending order
Start Az.
Max El. time (UTC)
Max El. Az.
Max El.
End time (UTC)
End Az.
289 mins2025-07-06 09:29:23.221Z69.584° E2025-07-06 12:43:23.221Z83.502° E21.56°2025-07-06 14:18:23.221Z88.471° E
152 mins2025-07-06 17:31:23.221Z276.66° WNW2025-07-06 18:32:23.221Z281.086° WNW13.484°2025-07-06 20:03:23.221Z288.398° WNW
|